Flag for U.S.A. Weather past 2 weeks in Macon, Georgia, U.S.A.

Now
68 °F

Overcast.


Feels Like: 68 °F
Forecast: 68 / 81 °F
Wind: 8 mph from Northeast

Location: Middle Georgia Regional Airport

Current Time: Aug 2, 2014 at 5:37:24 AM

Latest Report: Aug 2, 2014 at 4:53 AM


Visibility: 10 mi

Pressure: 30.00 "Hg

Humidity: 93%

Dew point: 66 °F

Location of MaconLocation

Historic Weather in Macon — Graph

°F

Macon temperature yesterday

Maximum temperature yesterday: 79 °F (at 5:53 PM)
Minimum temperature yesterday: 70 °F (at 11:53 PM)
Average temperature yesterday: 73 °F

Past Weeks' High & Low Weather Summary

 TemperatureHumidityPressure
High94 °F (Jul 27, 3:53 PM)100% (Jul 18, 4:53 AM)30.13 "Hg (Jul 18, 4:53 AM)
Low59 °F (Jul 30, 6:53 AM)36% (Jul 30, 4:53 PM)29.83 "Hg (Jul 28, 4:53 PM)
Average77 °F83%30.00 "Hg
* Reported Jul 18 4:53 AM — Aug 2 4:00 AM, Macon, Weather by CustomWeather, © 2014

Note: Actual official high and low records may vary slightly from our data, if they occured in-between our weather recording intervals... More about our weather records

Advertising

Macon weather history for previous 24 hours

 ConditionsComfort  
Time TempWeatherWind HumidityBarometerVisibility
4:00 AM
Aug 2
70 °FMostly cloudy.6 mph88%30.02 "Hg10 mi
2:53 AM69 °FMostly cloudy.7 mph96%30.02 "Hg10 mi
1:53 AM70 °FOvercast.6 mph93%30.03 "Hg10 mi
12:53 AM70 °FMostly cloudy.3 mph97%30.04 "Hg10 mi
11:53 PM
Aug 1
70 °FPassing clouds.5 mph97%30.04 "Hg10 mi
10:53 PM71 °FPassing clouds.5 mph93%30.03 "Hg10 mi
9:53 PM72 °FPassing clouds.5 mph91%30.03 "Hg10 mi
8:53 PM73 °FSunny.6 mph90%30.01 "Hg10 mi
7:53 PM75 °FSunny.7 mph85%30.01 "Hg10 mi
6:53 PM76 °FPartly sunny.9 mph85%30.00 "Hg10 mi
5:53 PM79 °FPartly sunny.8 mph77%30.01 "Hg10 mi
4:53 PM77 °FOvercast.6 mph82%30.01 "Hg10 mi
3:53 PM76 °FOvercast.5 mph82%30.02 "Hg10 mi
2:53 PM75 °FOvercast.8 mph85%30.02 "Hg10 mi
1:53 PM75 °FOvercast.8 mph88%30.03 "Hg10 mi
12:53 PM74 °FOvercast.8 mph91%30.04 "Hg10 mi
11:53 AM73 °FLow clouds.8 mph94%30.04 "Hg10 mi
10:53 AM71 °FLow clouds.9 mph100%30.03 "Hg10 mi
9:53 AM71 °FLight rain. Low clouds.7 mph93%30.03 "Hg10 mi
8:53 AM71 °FLow clouds.9 mph96%30.03 "Hg10 mi
7:53 AM71 °FLow clouds.10 mph96%30.02 "Hg10 mi
6:53 AM71 °FLow clouds.8 mph96%30.01 "Hg10 mi
5:53 AM71 °FLow clouds.5 mph96%29.99 "Hg10 mi
Weather by CustomWeather, © 2014

See weather overviewHow to use our weather pages